Change the Weather History Date:

Saturday, January 11, 2014

  Actual Average Record
Temperature  
Mean Temperature 50 °F -  
Max Temperature 57 °F 47 °F 39 °F (2015)
Min Temperature 44 °F 31 °F 32 °F (2015)
Degree Days  
Heating Degree Days 14    
Moisture  
Dew Point 46 °F    
Average Humidity 81    
Maximum Humidity 100    
Minimum Humidity 62    
Precipitation  
Precipitation 0.00 in - - ()
Sea Level Pressure  
Sea Level Pressure 29.79 in    
Wind  
Wind Speed 11 mph (WSW)    
Max Wind Speed 16 mph    
Max Gust Speed -    
Visibility 10 miles    
Events Rain    
Averages and records for this station are not official NWS values.
T = Trace of Precipitation, MM = Missing Value Source: NWS Daily Summary

Daily Weather History Graph

Daily Weather History Graph

Search for Another Location

Airport or City:

Trip Planner

Search our weather history database for the weather conditions in past years. The results will help you decide how hot, cold, wet, or windy it might be!

Date:

Astronomy

Jan. 11, 2014 Rise Set
Actual Time 7:08 AM CST 5:06 PM CST
Civil Twilight 6:40 AM CST 5:34 PM CST
Nautical Twilight 6:09 AM CST 6:05 PM CST
Astronomical Twilight 5:38 AM CST 6:36 PM CST
Moon 1:49 PM CST (1/11) 3:15 AM CST (1/11)
Length of Visible Light 10h 53m
Length of Day
9h 57m
Waxing Gibbous, 83% of the Moon is Illuminated
Jan 11
Waxing Gibbous
Jan 15
Full
Jan 23
Last Quarter
Jan 30
New
Feb 6
First Quarter

Hourly Weather History & Observations

Time (CST) Temp. Windchill Dew Point Humidity Pressure Visibility Wind Dir Wind Speed Gust Speed Precip Events Conditions
12:50 AM 57.2 °F - 57.2 °F 100% 29.69 in 4.0 mi WSW 16.1 mph - N/A Rain Light Rain
1:50 AM 55.4 °F - 53.6 °F 94% 29.68 in 10.0 mi WSW 9.2 mph - N/A   Scattered Clouds
2:15 AM 55.4 °F - 53.6 °F 94% 29.69 in 10.0 mi WSW 15.0 mph - N/A   Overcast
2:35 AM 55.4 °F - 51.8 °F 88% 29.69 in 10.0 mi WSW 10.4 mph - N/A   Overcast
2:55 AM 55.4 °F - 50.0 °F 82% 29.71 in 10.0 mi West 10.4 mph - N/A   Mostly Cloudy
3:15 AM 53.6 °F - 50.0 °F 88% 29.72 in 10.0 mi West 11.5 mph - N/A   Mostly Cloudy
3:35 AM 53.6 °F - 48.2 °F 82% 29.72 in 10.0 mi West 8.1 mph - N/A   Partly Cloudy
3:55 AM 51.8 °F - 48.2 °F 88% 29.72 in 10.0 mi West 6.9 mph - N/A   Clear
4:15 AM 51.8 °F - 46.4 °F 82% 29.73 in 10.0 mi West 6.9 mph - N/A   Clear
4:35 AM 51.8 °F - 46.4 °F 82% 29.73 in 10.0 mi West 5.8 mph - N/A   Clear
4:55 AM 48.2 °F - 44.6 °F 87% 29.74 in 10.0 mi WSW 5.8 mph - N/A   Clear
5:30 AM 48.2 °F - 46.4 °F 93% 29.74 in 10.0 mi SW 6.9 mph - N/A   Scattered Clouds
5:55 AM 46.4 °F 42.4 °F 42.8 °F 87% 29.75 in 10.0 mi SW 8.1 mph - N/A   Scattered Clouds
6:55 AM 44.6 °F 40.2 °F 42.8 °F 93% 29.77 in 10.0 mi WSW 8.1 mph - N/A   Scattered Clouds
7:55 AM 48.2 °F - 42.8 °F 82% 29.81 in 10.0 mi WSW 10.4 mph - N/A   Scattered Clouds
8:55 AM 50.0 °F - 42.8 °F 76% 29.82 in 10.0 mi West 11.5 mph - N/A   Partly Cloudy
9:55 AM 51.8 °F - 41.0 °F 67% 29.85 in 10.0 mi West 13.8 mph - N/A   Partly Cloudy
10:55 AM 51.8 °F - 42.8 °F 71% 29.86 in 10.0 mi West 9.2 mph - N/A   Partly Cloudy
11:57 AM 51.8 °F - 42.8 °F 71% 29.84 in 10.0 mi West 12.7 mph - N/A   Scattered Clouds
12:57 PM 53.6 °F - 42.8 °F 67% 29.84 in 10.0 mi West 16.1 mph - N/A   Scattered Clouds
1:56 PM 53.6 °F - 42.8 °F 67% 29.86 in 10.0 mi West 12.7 mph - N/A   Scattered Clouds
2:56 PM 53.6 °F - 42.8 °F 67% 29.88 in 10.0 mi West 11.5 mph - N/A   Scattered Clouds
3:56 PM 53.6 °F - 41.0 °F 62% 29.89 in 10.0 mi WSW 11.5 mph - N/A   Partly Cloudy
4:52 PM 51.8 °F - 42.8 °F 71% 29.90 in 10.0 mi WSW 11.5 mph - N/A   Partly Cloudy
5:54 PM 48.2 °F - 39.2 °F 71% 29.92 in 10.0 mi SSW 4.6 mph - N/A   Clear
6:54 PM 46.4 °F 45.2 °F 41.0 °F 81% 29.95 in 10.0 mi SSW 3.5 mph - N/A   Clear